Terminal Aerodrome Forecast
Issued by NWS

Home | Current Version | Previous Version | Text Only | Print | Product List | Glossary On
Versions: 1 2 3 4 5 6 7 8 9 10 11 12 13 14 15 16 17 18 19 20 21 22 23 24 25 26 27 28 29 30
000
FTUS46 KLOX 261700
TAFBUR
TAF
KBUR 261728Z 2618/2718 29007KT P6SM SKC
     FM262000 19011KT P6SM SCT250
     FM270400 VRB03KT P6SM SKC
     FM270700 36007KT P6SM SKC
     FM271400 03012KT P6SM SKC=

USA.gov is the U.S. government's official web portal to all federal, state and local government web resources and services.